Weather History for San Jose, Costa Rica

Change the Weather History Date:

Wednesday, September 18, 2013

  Actual Average Record
Temperature  
Mean Temperature 74 °F -  
Max Temperature 82 °F 78 °F 84 °F (2001)
Min Temperature 66 °F 64 °F 60 °F (2004)
Cooling Degree Days 9    
Growing Degree Days 24 (Base 50)    
Moisture  
Dew Point 67 °F    
Average Humidity 89    
Maximum Humidity 100    
Minimum Humidity 51    
Precipitation  
Precipitation 0.71 in 0.45 in - ()
Sea Level Pressure  
Sea Level Pressure 29.94 in    
Wind  
Wind Speed 4 mph ()    
Max Wind Speed 13 mph    
Max Gust Speed -    
Visibility 4.0 miles    
Events Fog , Rain , Thunderstorm    
Averages and records for this station are not official NWS values.
T = Trace of Precipitation, MM = Missing Value Source: Averaged Metar Reports

Daily Weather History Graph

Daily Weather History Graph

Search for Another Location

Airport:

Trip Planner

Search our weather history database for the weather conditions in past years. The results will help you decide how hot, cold, wet, or windy it might be!

Date:

Astronomy

Sep. 18, 2013 Rise Set
Actual Time 5:26 AM CST 5:35 PM CST
Civil Twilight 5:05 AM CST 5:56 PM CST
Nautical Twilight 4:40 AM CST 6:20 PM CST
Astronomical Twilight 4:16 AM CST 6:45 PM CST
Moon 5:00 PM CST (9/18) 4:31 AM CST (9/18)
Length of Visible Light 12h 50m
Length of Day
12h 08m
Waxing Gibbous, 99% of the Moon is Illuminated
Sep 18
Waxing Gibbous
Sep 19
Full
Sep 26
Last Quarter
Oct 4
New
Oct 11
First Quarter

Hourly Weather History & Observations

Time (CST) Temp. Heat Index Dew Point Humidity Pressure Visibility Wind Dir Wind Speed Gust Speed Precip Events Conditions
12:00 AM 68 °F - 67 °F 98% 29.82 in 2 mi SE 2.3 mph - -   Mist
12:00 AM 68.0 °F - 68.0 °F 100% 30.00 in 1.9 mi SE 2.3 mph - N/A   Mostly Cloudy
1:00 AM 68.0 °F - 68.0 °F 100% 29.98 in 0.6 mi SSE 2.3 mph - N/A   Mostly Cloudy
2:00 AM 68.0 °F - 68.0 °F 100% 29.95 in 0.6 mi Calm Calm - N/A   Mostly Cloudy
3:00 AM 68 °F - 67 °F 97% 29.80 in 1 mi Calm Calm - -   Mist
3:00 AM 68.0 °F - 68.0 °F 100% 29.95 in 0.6 mi Calm Calm - N/A   Mostly Cloudy
4:00 AM 68.0 °F - 68.0 °F 100% 29.95 in 0.6 mi North 2.3 mph - N/A   Mostly Cloudy
5:00 AM 68.0 °F - 68.0 °F 100% 29.96 in 1.9 mi Calm Calm - N/A   Mostly Cloudy
6:00 AM 68 °F - 67 °F 97% 29.83 in - ESE 3.5 mph - -   Mist
6:00 AM 68.0 °F - 68.0 °F 100% 29.98 in 3.1 mi ESE 3.5 mph - N/A   Mostly Cloudy
7:00 AM 71.6 °F - 68.0 °F 88% 29.98 in 6.2 mi NNE 2.3 mph - N/A Fog Mostly Cloudy
8:00 AM 77.0 °F - 66.2 °F 69% 30.00 in 6.2 mi Calm Calm - N/A   Mostly Cloudy
9:00 AM 82 °F - 67 °F 51% 29.82 in 12 mi SSW 2.3 mph - -   Haze
9:00 AM 82.4 °F 84.6 °F 66.2 °F 58% 30.00 in 6.2 mi SSW 2.3 mph - N/A   Mostly Cloudy
10:00 AM 78.8 °F - 68.0 °F 69% 30.00 in 6.2 mi WSW 8.1 mph - N/A   Mostly Cloudy
11:00 AM 80.6 °F 83.2 °F 68.0 °F 65% 29.99 in 6.2 mi SW 10.4 mph - N/A   Mostly Cloudy
12:00 PM 79 °F - 68 °F 62% 29.81 in 9 mi West 10.4 mph - -   Mostly Cloudy
12:00 PM 78.8 °F - 68.0 °F 69% 29.97 in 6.2 mi West 10.4 mph - N/A   Mostly Cloudy
12:45 PM 73.4 °F - 69.8 °F 88% - 6.2 mi WSW 11.5 mph - N/A Rain , Thunderstorm Thunderstorms and Rain
1:00 PM 73.4 °F - 69.8 °F 88% - 5.0 mi SW 8.1 mph - N/A Rain , Thunderstorm Thunderstorms and Rain
2:00 PM 73.4 °F - 69.8 °F 88% 29.94 in 5.0 mi WSW 9.2 mph - N/A   Drizzle
3:00 PM 70 °F - 68 °F 92% 29.77 in 3 mi West 12.7 mph - -   Mist
3:00 PM 69.8 °F - 68.0 °F 94% 29.92 in 3.1 mi West 12.7 mph - N/A Rain Light Rain
4:00 PM 68.0 °F - 68.0 °F 100% - 3.1 mi West 6.9 mph - N/A Rain Light Rain
5:00 PM 68.0 °F - 66.2 °F 94% - 3.1 mi North 9.2 mph - N/A Rain Light Rain
6:00 PM 68 °F - 66 °F 92% 29.86 in 3 mi NNE 6.9 mph - -   Mist
6:00 PM 68.0 °F - 66.2 °F 94% 2.99 in 3.1 mi NNE 6.9 mph - N/A Rain Rain
7:00 PM 68.0 °F - - N/A% 30.01 in 3.1 mi SW 3.5 mph - N/A Rain Rain
8:00 PM 68.0 °F - 66.2 °F 94% 30.04 in 5.0 mi SSW 2.3 mph - N/A Fog Fog
9:00 PM 67 °F - 66 °F 97% 29.92 in 1 mi West 4.6 mph - - Rain Light Rain Showers
9:00 PM 66.2 °F - 66.2 °F 100% 30.06 in 1.2 mi West 4.6 mph - N/A Rain Rain
10:00 PM 66.2 °F - 66.2 °F 100% - 5.0 mi North 3.5 mph - N/A Fog Light Drizzle
11:00 PM 68.0 °F - 66.2 °F 94% 30.04 in 6.2 mi East 2.3 mph - N/A   Mostly Cloudy